sat.trackr.live / text

‹ back to catalog

MMS 1

NORAD 40482 · 2015-011A

PAYLOAD ACTIVE UNKNOWN

§ Identity

Operator
Country
US
Launch date
2015-03-13
Launch site
AFETR
Launch vehicle
Mass (kg)
RCS (m²)
3.29

Purposes: science

External: N2YO · Heavens-Above · Gunter

§ Orbital elements

Epoch: 2026-09-20T06:00:02.000160Z

Period
5,085.81 min
Inclination
72.8933°
Eccentricity
0.8250750
Mean motion
0.28314066 rev/d
Perigee alt
10,758.2 km
Apogee alt
172,413.7 km
Semi-major
97,964.1 km
B*
0.0000e+0
RAAN
347.7201°
Arg perigee
169.3950°
Mean anomaly
276.1602°
Rev number
139

§ Raw data

MMS 11 40482U 15011A   26263.25002315 -.00001959  00000+0  00000+0 0  99962 40482  72.8933 347.7201 8250750 169.3950 276.1602  0.28314066  1393

JSON: /api/v1/satellites/40482 · /tle

For live sub-satellite position, see the globe view (requires WebGL).

§ Visibility from observer

Set your observer location to see the next 7 days of passes ≥ 10°. The values pass through the URL so the page stays shareable.

No JS? Fill the form by hand. The geolocation button needs JavaScript.